Temperature
16 16 16 15 15 15 15 15 15 15 14 14 14 14 14 14 14 14 13 13 13 13 13 13 13 13 12 12 12 12 12 12 12 11 11 11 11 11 11 11 11 11 10
16 16 16 15 15 15 15 15 15 14 14 14 14 14 14 14 13 13 13 13 13 13 13 13 12 12 12 12 12 12 11 11 11 11 11 11 11 10 10 10 10 10 10
16 16 15 15 15 15 15 15 14 14 14 14 14 14 14 13 13 13 13 13 12 12 12 12 12 12 12 12 11 11 11 11 11 11 11 10 10 10 10 10 10 10 10
16 15 15 15 15 15 15 14 14 14 14 14 14 13 13 13 13 13 12 12 12 12 12 12 12 12 11 11 11 11 11 11 11 10 10 10 10 10 10 10 10 9 9
15 15 15 15 15 15 14 14 14 14 14 14 13 13 13 13 13 12 12 12 12 12 12 11 11 11 11 11 11 11 11 10 10 10 10 10 9 9 9 9 9 9 9
15 15 15 15 15 14 14 14 14 14 14 13 13 13 13 12 12 12 12 12 11 11 11 11 11 11 11 11 11 10 10 10 10 10 10 9 9 9 9 9 8 8 8
15 14 14 14 14 14 14 14 14 13 13 13 13 13 12 12 12 12 11 11 11 11 11 11 11 11 11 10 10 10 10 10 10 10 9 9 9 9 9 8 8 8 8
14 14 14 14 14 14 14 14 13 13 13 13 13 12 12 12 12 12 11 11 11 11 11 11 10 10 10 10 10 10 10 10 10 9 9 9 9 9 8 8 8 8 8
14 14 14 14 14 14 14 13 13 13 13 13 12 12 12 12 12 11 11 11 11 11 11 10 10 10 10 10 10 10 10 10 10 9 9 9 9 8 8 8 8 7 8
14 14 13 13 13 13 13 13 13 13 12 12 12 12 12 12 11 11 11 11 10 10 10 10 10 10 10 10 10 10 10 10 9 9 9 9 8 8 8 8 7 7 7
13 13 13 13 13 13 13 12 12 12 12 12 12 12 11 11 11 11 11 10 10 10 10 10 10 10 10 10 10 9 9 9 9 9 9 8 8 8 8 8 7 7 7
13 13 13 12 12 12 12 12 12 12 12 12 11 11 11 11 11 11 10 10 10 10 10 10 10 10 10 9 9 9 9 9 9 9 8 8 8 8 7 7 7 7 7
13 12 12 12 12 12 11 11 11 11 11 11 11 11 11 11 10 10 10 10 10 10 10 10 10 9 9 9 9 9 9 9 8 8 8 8 7 7 7 7 7 6 6
12 12 12 12 11 11 11 11 11 11 11 11 11 11 10 10 10 10 10 10 10 9 9 9 9 9 9 9 9 9 8 8 8 8 8 7 7 7 6 6 6 6 6
12 12 11 11 11 11 11 11 10 10 10 10 10 10 10 10 10 10 10 9 9 9 9 9 9 9 9 9 8 8 8 8 8 7 7 7 7 6 6 6 6 5 5
12 11 11 11 11 10 10 10 10 10 10 10 10 10 10 10 10 9 9 9 9 9 9 8 8 8 8 8 8 8 8 7 7 7 7 7 6 6 6 5 5 5 5
11 11 11 11 10 10 10 10 9 9 9 9 9 9 9 9 9 9 9 9 8 8 8 8 8 8 8 8 8 8 7 7 7 7 6 6 6 6 5 5 5 5 5
11 11 10 10 10 10 10 9 9 9 9 9 9 9 9 9 8 8 8 8 8 8 8 8 8 8 8 8 7 7 7 7 7 6 6 6 6 5 5 5 5 4 4
10 10 10 10 10 9 9 9 9 9 8 8 8 8 8 8 8 8 8 8 8 8 8 8 8 8 7 7 7 7 7 6 6 6 6 6 5 5 5 5 4 4 4
10 10 9 9 9 9 9 9 8 8 8 8 8 8 8 7 7 7 7 7 7 7 7 7 7 7 7 7 7 6 6 6 6 6 5 5 5 4 4 4 4 4 4
9 9 9 9 9 9 8 8 8 8 8 8 8 8 7 7 7 7 7 7 7 7 7 7 7 7 7 6 6 6 6 6 5 5 5 5 4 4 4 4 4 3 3
9 9 9 9 8 8 8 8 8 8 7 7 7 7 7 7 7 7 7 7 6 6 7 6 6 6 6 6 6 6 5 5 5 5 5 4 4 4 4 3 3 3 2
9 9 8 8 8 8 8 8 7 7 7 7 7 7 7 6 6 6 6 6 6 6 6 6 6 6 6 6 5 5 5 5 5 5 4 4 4 3 3 3 3 2 2
8 8 8 8 8 8 7 7 7 7 7 7 6 6 6 6 6 6 6 6 6 6 6 6 6 6 6 6 5 5 5 5 5 4 4 4 3 3 3 3 3 2 2
8 8 8 7 7 7 7 7 6 6 6 6 6 6 6 6 6 6 6 5 5 6 6 6 6 6 5 5 5 5 5 5 4 4 4 3 3 3 3 2 2 2 2
7 7 7 7 7 7 7 6 6 6 6 6 6 6 6 6 6 5 5 5 5 5 5 5 5 5 5 5 5 5 5 4 4 4 4 3 3 3 2 2 2 2 1
Wind_Speed
4 4 4 4 5 4 4 4 4 3 3 3 3 3 3 3 3 4 3 3 3 2 2 3 2 1 1 1 2 2 2 2 2 1 1 0 0 0 0 0 1 1 1
4 4 4 4 4 4 4 4 3 3 3 3 3 3 3 3 3 4 3 2 3 2 1 2 1 2 2 1 2 2 2 2 3 2 1 1 0 1 0 0 1 1 2
4 4 4 4 4 4 4 4 4 4 3 3 3 3 3 3 3 3 3 2 2 2 2 2 2 3 2 1 2 2 1 1 2 2 1 0 1 0 1 1 1 2 2
4 4 4 4 4 5 4 4 4 4 4 4 3 3 3 3 3 3 3 2 2 2 2 2 2 3 3 3 2 2 2 2 2 2 1 0 1 1 1 0 1 2 2
3 3 3 3 3 3 3 3 3 4 4 4 4 3 3 3 3 3 3 3 2 1 1 1 2 3 3 3 3 3 3 2 2 2 1 0 1 0 1 1 1 1 2
3 3 2 2 2 2 3 3 3 3 3 3 4 3 3 2 3 5 4 3 3 2 2 1 1 2 2 2 3 5 5 4 4 3 2 2 3 3 1 1 1 0 2
3 2 2 3 3 2 2 3 3 3 3 3 4 4 3 3 4 5 5 4 3 3 3 2 2 2 1 2 2 3 4 5 6 5 4 5 4 5 3 2 2 2 3
3 2 2 3 3 2 2 2 3 3 3 3 4 4 3 3 4 5 5 4 3 3 4 4 4 3 3 3 2 2 2 3 5 4 5 6 5 5 5 4 4 2 1
3 3 3 3 3 3 3 3 2 2 3 3 3 4 4 4 5 5 5 3 2 3 3 3 3 4 4 4 3 3 2 3 3 4 4 4 4 4 4 3 2 1 1
4 4 4 3 4 5 5 4 2 3 3 3 3 4 5 5 6 6 6 3 3 2 2 3 4 5 5 4 4 4 4 4 3 1 1 2 2 3 3 4 4 3 2
4 3 3 4 4 4 4 3 3 3 3 3 3 3 4 5 6 7 7 5 4 3 3 3 4 6 6 6 5 5 7 4 3 2 2 1 1 1 2 3 4 4 4
3 3 4 3 3 3 3 3 3 3 3 3 3 3 3 4 5 6 7 7 5 5 5 4 5 6 6 6 5 5 4 3 2 2 2 2 3 3 3 3 4 4 5
3 3 4 3 3 3 4 4 3 3 4 4 3 4 3 3 4 7 7 7 7 5 5 6 6 6 5 4 5 4 3 3 3 3 3 4 4 4 3 1 1 2 3
4 4 3 3 3 3 3 4 4 5 5 5 5 5 4 3 4 4 4 4 5 4 3 3 4 3 2 2 2 2 2 3 4 4 4 3 2 2 2 2 2 1 1
4 4 3 3 3 3 3 4 5 6 6 6 6 6 5 5 7 7 5 4 4 4 2 1 1 1 1 1 1 2 2 2 2 3 3 2 2 2 2 2 2 1 2
3 3 3 3 2 2 3 2 4 4 5 6 5 5 5 6 6 6 7 6 5 5 4 2 3 3 3 4 3 3 3 3 3 3 3 3 3 3 3 2 2 2 3
4 4 3 3 2 3 3 3 3 3 3 4 5 5 5 4 4 5 5 5 5 6 4 4 4 4 4 4 4 4 4 3 3 3 4 4 4 3 3 3 2 2 3
4 5 4 3 3 3 3 3 3 3 3 3 4 4 4 4 4 4 3 3 2 3 3 4 5 4 4 4 4 3 3 2 2 2 3 3 3 3 3 3 3 3 3
4 3 3 3 3 3 3 3 3 3 3 3 2 3 3 3 2 2 4 3 4 4 4 4 4 4 4 4 4 4 4 3 3 3 3 3 3 3 3 3 3 4 3
4 5 4 3 3 3 3 3 3 3 4 3 3 3 1 1 1 2 3 3 4 4 4 5 4 4 4 4 4 4 4 4 4 4 4 4 3 3 4 4 4 4 3
3 4 4 3 3 3 3 4 4 4 4 4 4 4 4 3 4 5 4 4 5 5 5 5 5 4 4 4 4 5 5 4 4 4 4 4 4 3 4 4 4 4 3
3 3 4 4 4 4 3 4 3 4 5 5 4 3 5 4 4 4 5 5 5 5 5 5 5 5 5 5 5 5 5 5 5 5 5 4 4 4 4 4 3 3 4
4 4 4 3 4 4 4 3 3 4 4 4 4 3 4 4 4 5 5 5 5 4 4 4 5 4 5 5 6 6 6 6 6 6 6 5 4 4 4 4 5 5 5
3 4 4 4 3 4 4 4 4 4 4 4 4 4 4 4 5 5 5 5 4 4 4 4 5 6 6 5 6 7 8 8 7 7 7 6 5 5 4 4 5 6 5
4 4 3 4 4 4 4 4 4 4 4 4 4 4 4 4 5 5 5 5 5 5 5 5 5 6 7 7 7 7 9 9 8 7 6 5 5 5 5 5 5 5 5
4 4 4 3 3 3 4 3 4 4 4 4 4 4 5 5 5 5 5 5 5 5 5 5 6 6 6 6 7 8 9 9 9 9 7 5 5 5 5 5 6 5 6
Wind_Direction
164 163 159 164 165 157 158 176 175 163 159 153 153 138 126 121 111 109 112 110 109 94 96 118 131 130 111 102 102 96 98 124 157 259 281 279 145 138 95 248 299 321 329
169 157 162 165 154 156 169 179 163 154 157 159 151 144 140 134 132 135 138 124 129 132 140 129 155 140 119 124 118 117 128 140 150 182 288 326 261 201 160 232 302 297 287
154 148 149 155 159 168 177 171 158 155 158 152 150 152 151 150 150 155 157 154 151 162 168 161 184 152 153 155 141 136 146 127 127 149 213 298 318 5 32 347 344 327 310
149 151 161 173 181 183 181 170 165 160 156 157 157 157 155 157 159 160 161 154 155 169 175 178 186 177 187 183 170 168 148 124 115 128 169 249 269 308 71 43 336 340 322
152 164 189 194 179 176 176 174 169 166 169 164 149 143 146 157 169 160 158 158 160 168 180 196 200 184 184 186 181 176 158 148 140 147 182 192 273 264 244 235 244 314 318
154 178 194 176 165 172 182 173 163 166 162 152 152 160 168 189 177 169 164 165 165 165 183 215 218 191 204 202 191 171 161 164 174 177 200 212 235 229 220 196 177 51 297
159 178 183 180 180 190 182 160 169 175 166 169 175 176 186 199 181 172 167 166 174 186 195 209 234 234 198 203 199 188 194 190 181 180 194 215 218 215 192 193 201 206 237
168 183 186 182 187 187 159 173 191 178 177 186 192 187 188 209 189 175 166 164 174 196 210 211 213 235 227 200 188 191 215 227 212 197 200 215 218 205 195 194 194 204 264
186 201 202 191 197 196 197 201 196 182 191 201 196 193 199 219 201 184 162 162 182 218 230 223 212 221 237 202 177 192 223 263 246 220 221 225 234 225 188 135 133 124 284
205 209 205 198 200 208 214 212 206 197 204 198 211 211 207 217 210 192 173 173 195 229 250 244 228 229 240 210 190 190 215 241 227 225 250 279 259 247 220 187 184 185 209
207 208 207 207 213 219 215 211 205 200 199 207 219 234 226 220 215 202 189 190 199 212 228 242 246 243 243 229 210 204 220 217 198 192 203 234 259 254 249 230 201 188 198
200 207 215 219 223 224 205 206 204 193 198 213 222 245 248 232 220 215 209 209 203 201 221 231 237 239 241 233 220 224 213 186 173 180 199 229 234 240 243 241 235 228 223
202 213 221 223 226 215 202 201 207 205 209 218 217 228 246 242 231 225 219 220 217 217 226 232 235 233 236 240 232 213 192 180 179 196 219 232 232 229 225 231 260 257 275
203 217 222 218 225 227 215 204 208 213 217 219 224 231 238 242 233 222 218 227 227 232 238 240 238 234 227 236 227 210 207 200 197 212 225 231 225 219 224 215 220 227 276
202 211 221 225 222 231 230 221 220 226 219 216 222 221 220 235 237 222 206 216 214 209 185 171 186 212 232 244 236 224 215 207 216 221 218 226 227 230 239 225 213 216 230
198 210 212 212 221 230 234 260 258 246 247 235 233 232 233 237 238 226 223 226 212 183 159 186 208 214 222 228 227 234 227 224 222 217 216 217 222 228 239 241 226 225 242
200 206 206 207 217 230 224 226 265 297 281 249 244 239 235 236 231 226 212 198 190 169 177 202 213 218 225 226 224 223 232 234 224 217 219 223 224 228 229 233 237 243 249
204 205 204 209 216 221 223 225 225 237 266 274 266 256 248 239 232 223 183 143 169 185 204 213 221 221 220 221 223 225 228 225 219 223 227 226 222 225 230 235 237 240 250
203 207 211 212 213 213 217 220 224 234 241 249 266 274 262 256 243 206 154 174 198 210 219 224 226 223 222 224 226 221 218 220 219 219 228 234 230 225 235 239 239 243 246
210 211 207 209 209 212 218 220 223 229 232 231 236 242 233 182 212 208 204 215 216 222 224 228 232 230 225 224 222 219 220 222 219 224 228 231 234 232 234 235 233 236 242
208 212 210 215 210 212 217 222 222 225 229 231 236 233 213 213 220 221 220 222 224 227 228 229 231 229 229 226 222 222 224 228 227 224 225 227 227 234 238 237 235 234 241
201 209 213 215 215 216 219 221 225 230 230 231 241 239 231 224 227 228 229 233 235 233 229 226 230 230 226 222 220 223 227 229 227 223 224 226 228 231 233 232 233 239 245
198 209 214 215 214 220 218 222 229 234 233 230 231 229 225 230 234 234 236 237 235 235 234 231 234 240 240 232 224 220 223 226 225 218 217 221 223 225 228 232 234 236 243
201 208 211 213 214 215 217 225 236 240 238 232 233 231 228 230 237 241 241 239 238 239 234 233 236 239 239 237 231 226 226 227 222 216 211 213 220 224 228 236 239 238 237
206 208 209 212 213 217 222 228 239 245 245 238 236 237 237 235 239 248 248 242 238 238 242 240 239 239 237 238 237 233 229 225 221 215 208 208 216 223 226 233 238 241 242
210 212 215 214 213 217 222 228 239 250 250 247 244 241 241 241 241 246 248 242 241 243 248 248 243 241 241 239 234 229 225 223 220 215 205 205 213 223 225 231 237 235 236
Height
1539 1540 1540 1541 1542 1543 1543 1544 1544 1545 1545 1545 1546 1546 1546 1546 1546 1546 1546 1546 1545 1545 1545 1545 1546 1546 1546 1546 1546 1547 1547 1547 1546 1547 1547 1546 1546 1545 1545 1544 1543 1543 1542
1537 1538 1539 1540 1540 1541 1542 1542 1543 1543 1544 1544 1544 1544 1544 1544 1544 1544 1544 1544 1544 1544 1544 1544 1544 1544 1545 1545 1545 1545 1545 1545 1545 1544 1545 1544 1544 1544 1543 1542 1542 1541 1540
1536 1536 1537 1538 1538 1539 1540 1540 1541 1542 1542 1542 1543 1543 1543 1543 1543 1543 1543 1543 1543 1543 1543 1543 1543 1543 1543 1543 1543 1543 1544 1544 1543 1543 1542 1542 1542 1542 1541 1540 1540 1539 1538
1534 1535 1535 1536 1536 1537 1538 1539 1539 1540 1540 1540 1541 1541 1541 1541 1541 1541 1541 1541 1541 1541 1541 1541 1541 1541 1541 1541 1541 1541 1542 1541 1541 1541 1541 1540 1540 1539 1538 1537 1537 1536 1536
1532 1533 1533 1534 1535 1535 1536 1536 1537 1537 1538 1538 1539 1539 1539 1539 1539 1539 1539 1539 1539 1539 1539 1540 1540 1540 1540 1539 1539 1539 1539 1539 1539 1539 1538 1538 1537 1537 1536 1535 1535 1534 1534
1530 1530 1531 1532 1532 1533 1533 1534 1534 1535 1536 1536 1536 1537 1537 1537 1537 1537 1537 1537 1537 1537 1537 1537 1537 1537 1537 1537 1537 1537 1537 1537 1537 1536 1536 1535 1535 1534 1534 1533 1533 1532 1531
1528 1528 1529 1529 1529 1530 1531 1531 1532 1532 1533 1533 1534 1534 1534 1534 1534 1534 1534 1534 1534 1535 1535 1534 1534 1534 1534 1534 1534 1534 1535 1535 1535 1534 1533 1533 1532 1532 1531 1531 1530 1530 1529
1525 1526 1526 1526 1527 1527 1528 1528 1529 1530 1530 1530 1531 1531 1531 1531 1531 1531 1532 1532 1532 1532 1532 1532 1531 1531 1531 1531 1531 1531 1531 1531 1531 1531 1531 1530 1530 1529 1529 1528 1527 1527 1526
1522 1523 1523 1524 1524 1524 1525 1525 1526 1527 1527 1527 1527 1528 1528 1528 1528 1528 1528 1528 1528 1528 1528 1528 1528 1528 1528 1528 1528 1528 1528 1528 1528 1528 1527 1527 1526 1526 1526 1525 1524 1523 1522
1519 1520 1520 1521 1521 1521 1522 1522 1523 1523 1524 1524 1524 1524 1524 1524 1525 1525 1525 1525 1525 1525 1525 1525 1525 1525 1525 1524 1524 1524 1524 1524 1524 1524 1524 1523 1523 1523 1522 1522 1521 1520 1519
1517 1517 1517 1517 1518 1518 1518 1519 1519 1520 1520 1520 1520 1520 1521 1521 1521 1521 1521 1521 1521 1521 1521 1520 1521 1521 1521 1521 1521 1521 1521 1521 1520 1520 1520 1519 1519 1519 1518 1518 1518 1517 1515
1513 1513 1513 1514 1514 1514 1514 1515 1515 1516 1516 1516 1516 1516 1516 1516 1517 1517 1517 1517 1517 1517 1516 1516 1516 1517 1517 1517 1517 1517 1517 1517 1516 1516 1516 1515 1515 1514 1514 1514 1513 1513 1512
1509 1509 1509 1510 1510 1510 1510 1510 1511 1511 1511 1511 1511 1511 1511 1512 1512 1512 1512 1513 1513 1512 1512 1512 1512 1513 1513 1512 1512 1512 1513 1512 1512 1512 1511 1511 1511 1510 1510 1509 1509 1508 1507
1505 1505 1505 1505 1505 1506 1506 1506 1506 1506 1506 1506 1506 1506 1506 1507 1507 1507 1507 1507 1508 1508 1508 1508 1508 1508 1508 1508 1508 1508 1508 1507 1507 1507 1507 1506 1506 1506 1505 1505 1504 1503 1502
1501 1501 1501 1501 1501 1501 1501 1501 1501 1501 1501 1501 1501 1501 1501 1501 1502 1502 1502 1502 1502 1502 1503 1502 1502 1503 1502 1503 1503 1503 1503 1503 1502 1502 1502 1501 1501 1501 1501 1500 1499 1499 1498
1497 1497 1497 1497 1497 1497 1496 1496 1496 1497 1497 1497 1497 1497 1497 1497 1497 1497 1497 1497 1497 1498 1498 1497 1497 1497 1497 1498 1498 1497 1498 1498 1497 1497 1497 1497 1496 1496 1495 1495 1495 1494 1493
1492 1492 1492 1492 1492 1492 1492 1492 1491 1491 1491 1492 1492 1492 1492 1492 1492 1492 1492 1492 1492 1492 1492 1492 1492 1492 1492 1493 1493 1493 1492 1492 1492 1492 1492 1491 1491 1491 1490 1490 1489 1489 1488
1488 1488 1488 1488 1488 1488 1487 1487 1487 1486 1486 1486 1487 1487 1487 1487 1487 1487 1487 1487 1486 1486 1487 1487 1487 1487 1487 1488 1488 1487 1487 1487 1487 1487 1487 1486 1486 1485 1485 1484 1484 1484 1483
1483 1483 1483 1483 1483 1483 1483 1483 1482 1482 1482 1482 1481 1482 1482 1482 1482 1482 1481 1481 1481 1481 1482 1482 1482 1482 1482 1483 1483 1482 1482 1482 1482 1482 1482 1481 1481 1481 1480 1479 1479 1478 1478
1478 1478 1479 1478 1478 1478 1478 1478 1477 1477 1477 1477 1477 1477 1477 1477 1476 1476 1476 1476 1476 1476 1477 1477 1477 1477 1477 1477 1477 1477 1477 1477 1477 1477 1477 1476 1476 1476 1475 1474 1474 1473 1472
1473 1473 1473 1473 1473 1473 1473 1473 1473 1472 1472 1472 1472 1472 1472 1472 1471 1471 1471 1471 1472 1472 1472 1472 1472 1472 1472 1472 1472 1472 1472 1471 1472 1471 1471 1471 1471 1470 1470 1470 1469 1468 1467
1468 1468 1468 1468 1468 1468 1468 1468 1468 1468 1467 1467 1467 1467 1468 1467 1467 1467 1467 1467 1467 1468 1468 1468 1467 1467 1467 1467 1467 1466 1466 1466 1466 1466 1466 1466 1466 1465 1465 1464 1464 1463 1462
1463 1463 1463 1463 1463 1463 1464 1463 1463 1463 1463 1462 1462 1462 1462 1462 1462 1462 1462 1462 1463 1463 1463 1463 1462 1462 1462 1461 1461 1461 1461 1461 1461 1461 1460 1460 1460 1460 1460 1459 1458 1458 1457
1459 1458 1458 1458 1458 1458 1458 1458 1458 1458 1458 1458 1457 1457 1457 1457 1457 1457 1457 1457 1457 1457 1457 1457 1457 1457 1456 1456 1456 1455 1455 1455 1455 1455 1455 1455 1454 1454 1454 1454 1453 1453 1452
1454 1454 1454 1453 1453 1454 1454 1453 1453 1453 1453 1453 1453 1452 1452 1452 1452 1452 1452 1452 1452 1452 1452 1452 1451 1451 1451 1450 1450 1450 1449 1449 1449 1449 1449 1449 1449 1448 1448 1448 1448 1447 1447
1449 1449 1449 1449 1449 1449 1449 1448 1448 1448 1448 1448 1448 1447 1447 1447 1447 1447 1446 1446 1446 1446 1446 1446 1446 1445 1445 1444 1444 1444 1443 1443 1443 1443 1443 1443 1443 1442 1442 1442 1442 1442 1442